Location: Peebles
(55.6412°N, 3.1714°W)
Time: 14:04:15
(UTC+00:00)

RS-15 - Pass Details

Date: 05 December 2023
Orbit: 1893 x 2151 km, 64.8° (Epoch: 02 March)

Event Time Altitude Azimuth Distance (km) Brightness Sun altitude
Rises 19:09:27 0° 171° (S) 5,651 10.4 -27.6°
Reaches altitude 10° 19:13:27 10° 162° (SSE) 4,637 9.8 -28.2°
Enters shadow 19:18:14 23° 143° (SE) 3,637 9.1 -28.8°
